Погода в Камышлове

Погода в Камышлове : погода сейчас, прогноз погоды и архив. Всё, что Вы хотите узнать о погоде в Камышлове!

Хотите узнать прогноз погоды в Камышлове? Тогда Вам сюда: Погода в Камышлове

Поиск расширенной информации на нашем сайте:

Другие новости

Новости СМИ2

Главная страница сайта

Новости сайта

02.10.2013

Напоминаем, что на нашем новом сайте вы можете получить высокодетализированные прогнозы погоды по пунктам России, СНГ и мира (включающие важные для авиации метеовеличины, такие как направление и скорость ветра, видимость, явления погоды, количество и форма облачности, нижняя и верхняя граница облачности), а также ознакомиться с разнообразными материалами по авиационной метеорологии и подборкой полезных ссылок на эту тему.

Сайт Метеоцентр.Азия посвящён разработке технологий оптимизации авиаметеорологического обслуживания, включая проектирование и перспективное создание нескольких автоматизированных авиаметеорологических систем:
- система выпуска высокодетальных прогностических карт явлений погоды для нижнего воздушного пространства по России и ближнему зарубежью;
- система верификации прогнозов TAF (выпускаемых синоптиками официальных АМСГ РФ и ближнего зарубежья) и AUTOTAF (выпускаемых сайтом Метеоцентр.Азия) - выявление ошибок, онлайн-сопоставление с фактической погодой METAR, автоматическое внесение коррективов в прогнозы при резком отклонении фактической погоды от прогноза, подсчёт оправдываемости прогнозов по элементам и в целом;
- система обработки, анализа и отображения авиаметеорологической информации для применения провайдерами метеорологической информации.


Погода в Камышлове - сегодня

Время (UTC), дата Ветер
(°,м/с) 
Видим.   Явления Облачность Т
(°С)
Тd
(°С)
f(%) Тe
(°С)
Pmin
(гПа)
dP
(гПа)
Po
(мм)
O2
(г/м3)
Тmin Tmax R s Состояние
почвы
12 18.06.17 260 (З) 4000 м  слаб. ливневой дождь  10/10 600 м кучево-дожд. 
[Cb cap]
+18.5 +16.1 86 +30  998.4  -1.5  738  275           
18 18.06.17 270 (З) 5{10}  2000 м  дождь{ливн. осадки}  10/10 300 м 
[Ns]
+15.3 +14 92 +23  994.7  -2.5  735  278           
00 19.06.17 250 (З) 5{13}  2000 м  дождь  10/10 300 м 
[Ns]
+13.5 +11.8 89 +17  992.4  -1.2  733  279           
06 19.06.17 230 (ЮЗ) 6-12{14}  2000 м  дождь  10/10 300 м 
[Ns]
+14.5 +12.6 88 +19  990.6  -0.4  732  278           
12 19.06.17 250 (З) 7-12{13}  4000 м  слаб. дождь  10/10 300 м 
[Ns]
+15.9 +12.4 80 +20  993.5  1.4  734  277           
18 19.06.17 260 (З) 5{10}  4000 м  {дождь}  9/0 средняя 
[Ac lent]
+14.7 +10.3 75 +16  994.3  0.3  735  279           
21 19.06.17 240 (ЮЗ) 4{10}  4000 м    9/8 600 м средняя 
[Cu med, cong|Ac As]
+12.9 +8.6 75 +12  994.3  -0.2  735  281           
00 20.06.17 250 (З) 6-10{11}  20000 м    10/10 600 м 
[Sc]
+14.3 +9.3 72 +15  993.9  -0.3  734  279           
06 20.06.17 210 (ЮЗ) 2{11}  10 км  слаб. дождь  10/10 300 м 
[Ns]
+14.1 +11.3 83 +18  996.6  1.8  736  280  +12.1         
09 20.06.17 210 (ЮЗ) 20000 м  {дождь}  10/10 600 м 
[Sc]
+17.8 +12.5 71 +23  996.1  -0.3  736  276           
12 20.06.17 210 (ЮЗ) 4{11}  20000 м  {дождь}  6/6 600 м 
[Sc]
+21.9 +12.3 54 +27  995.2  -0.7  736  272           
18 20.06.17 240 (ЮЗ) 4000 м    8/4 600 м кучево-дожд., средняя 
[Cb cap|Ac trans]
+15.7 +11.8 78 +20  996.2  0.2  736  278           
21 20.06.17 170 (Ю) 4000 м    ясно 
+13.4 +11 85 +18  995.3  -1  735  280           
00 21.06.17 150 (ЮВ) 20000 м    ясно 
+11.7 +10.3 91 +15  995  -0.4  735  282           
06 21.06.17 тихо ()   4000 м  слаб. ливневой дождь  9/9 600 м кучево-дожд. 
[Cb cap]
+16.4 +13.7 84 +23  994.6  0.4  735  277           
09 21.06.17 290 (З) 20000 м  {ливн. осадки}  8/8 600 м кучево-дожд. 
[Cb cap]
+19.3 +13.4 69 +28  994.7  0.2  735  274           
12 21.06.17 310 (СЗ) 20000 м  {ливн. осадки}  9/9 300 м кучево-дожд. 
[Cb cap]
+21.2 +12.5 58 +26  995.5  0.9  736  273           
18 21.06.17 250 (З) 4000 м  {гроза}  ясно 
+15.1 +12.7 86 +21  999.7  1.8  739  280           
21 21.06.17 260 (З) 4000 м    ясно 
+13.4 +11.2 87 +17  1001.4  1.6  740  282           
00 22.06.17 260 (З) 20000 м    ясно 
+12.3 +10.4 88 +15  1002.3  0.8  740  284           
06 22.06.17 240 (ЮЗ) 20000 м    6/0 верхняя 
[Ci fib]
+22 +10.5 48 +24  1003.5  0.7  742  275           
09 22.06.17 190 (Ю) 20000 м    6/0 средняя, верхняя 
[Ac trans|Ci fib]
+23.4 +10.6 44 +26  1003.4  -0.3  742  273           
12 22.06.17 210 (ЮЗ) 20000 м    3/0 средняя 
[Ac trans]
+25.4 +10.5 39 +27  1002.7  -0.3  741  271           
18 22.06.17 170 (Ю) 4000 м    ясно 
+20.1 +12.4 61 +25  1003.2  0.3  741  276           
21 22.06.17 180 (Ю) н/о    н/о 
+17.4 +12.2 72 +23  1003.7  0.3  742  279           
Время (UTC), дата Ветер
(°,м/с) 
Видим.   Явления Облачность Т
(°С)
Тd
(°С)
f(%) Тe
(°С)
Pmin
(гПа)
dP
(гПа)
Po
(мм)
O2
(г/м3)
Тmin Tmax R s Состояние
почвы

Для получения пояснительной информации подведите курсор к названию столбца.

ПОГОДА в Камышлове - архив

Всё, что Вы хотите узнать о погоде в Камышлове - удобно и подробно!

Выберите нужную дату (начиная с 1 января 2015* года) и нажмите кнопку "Найти".
Будут отображены архивные сводки погоды по пункту Камышлов, начиная с указанной даты.


Отображать данные в формате CSV (для использования в таблицах Excel)


Внимание! Наш архив погоды предназначен исключительно для личного некоммерческого использования в познавательных целях. Если Вам необходимы официальные справки о состоянии погоды (для производственных, юридических, коммерческих и т.п. целей), обращайтесь в органы Росгидромета.

*Примечание: данная дата относится к архиву по метеостанциям СССР (Россия, СНГ, Балтия).
Архив по метеостанциям Зарубежной Европы и Азии (кроме Китая) хранится 10 дней, по другим регионам земного шара (Китай, Африка, Америка, Австралия, Океания) - 1 день.

Камышлов - район местоположения метеостанции


Название, широта, долгота, высота метеостанции:
Камышлов 56.9°ш. 62.7°д. 127 м над ур. моря [Российская Федерация]

Дополнительная информация

В oтличие oт бoльшинства пoгoдных сайтoв мы публикуем пoдрoбную метеoинфoрмацию в детальнoм прoфессиoнальнoм фoрмате.

Характеристики температуры и влажнoсти вoздуха измеряются на высoте 2 м в тени вдали oт зданий и деревьев.
Скoрoсть ветра измеряется на высoте 10 м (на урoвне рoста челoвека скoрoсть ветра ниже в 1.5-2 раза). Если метеoстанция нахoдится в гoрoде или в лесу, тo скoрoсть ветра занижена на 2-4 м/с пo сравнению с oткрытым местoм. Скoрoсть ветра над акватoриями крупных рек и oзёр, а также на вершинах хoлмoв на 2-5 м/с выше, чем в oбычных услoвиях.
Атмoсфернoе давление в разных тoчках местнoсти мoжет значительнo oтличаться oт давления на метеoстанции, в зависимoсти oт услoвий рельефа (при пoдъёме на 10 м давление пoнижается примернo на 1 мм рт.ст.).